Home > Weather > Bad Hersfeld > Past weeks

Flag for Germany Past Weather in Bad Hersfeld, Hesse, Germany — Yesterday and Last 2 Weeks

Now
63 °F

Partly cloudy.


Feels Like: 63 °F
Forecast: 59 / 79 °F
Wind: 3 mph from Northwest

Location: Fritzlar Airport

Current Time: Jul 24, 2016 at 7:09:28 AM

Latest Report: Jul 24, 2016 at 6:20 AM


Visibility: N/A

Pressure: 30.09 "Hg

Humidity: 94%

Dew Point: 61 °F

Location of Bad HersfeldLocation

Past Weather in Bad Hersfeld — Graph

°F

Bad Hersfeld Temperature Yesterday

Maximum temperature yesterday: 70 °F (at 3:20 PM)
Minimum temperature yesterday: 63 °F (at 6:20 AM)
Average temperature yesterday: 66 °F

High & Low Weather Summary for the Past Weeks

 TemperatureHumidityPressure
High90 °F (Jul 20, 3:20 PM)100% (Jul 18, 2:20 AM)30.30 "Hg (Jul 18, 2:20 AM)
Low48 °F (Jul 16, 2:20 AM)27% (Jul 20, 5:20 PM)29.77 "Hg (Jul 11, 3:20 AM)
Average67 °F71%30.05 "Hg
* Reported Jul 9 5:20 AM — Jul 24 5:20 AM, Bad Hersfeld, Weather by CustomWeather, © 2016

Note: Actual official high and low records may vary slightly from our data, if they occured in-between our weather recording intervals... More about our weather records

Advertising

Bad Hersfeld Weather History for the Previous 24 Hours

Scroll right to see more
 ConditionsComfort  
Time TempWeatherWind HumidityBarometerVisibility
5:20 AM
Sun, Jul 24
63 °FPartly cloudy.2 mph94%30.09 "HgN/A
4:20 AM64 °FPassing clouds.3 mph88%30.09 "HgN/A
3:20 AM63 °FPassing clouds.6 mph94%30.09 "HgN/A
2:20 AM64 °FPassing clouds.6 mph88%30.09 "HgN/A
1:20 AM64 °FPassing clouds.5 mph94%30.09 "HgN/A
12:20 AM66 °FPassing clouds.6 mph88%30.09 "HgN/A
11:20 PM
Sat, Jul 23
66 °FPassing clouds.5 mph88%30.09 "HgN/A
10:20 PM66 °FPartly sunny.7 mph88%30.09 "HgN/A
9:20 PM66 °FPartly sunny.5 mph88%30.07 "HgN/A
8:20 PM68 °FPartly sunny.6 mph83%30.07 "HgN/A
7:20 PM68 °FPartly sunny.5 mph88%30.07 "HgN/A
6:20 PM70 °FPartly sunny.6 mph83%30.07 "HgN/A
5:20 PM70 °FPartly sunny.5 mph83%30.09 "HgN/A
4:20 PM70 °FPartly sunny.6 mph78%30.09 "HgN/A
3:20 PM70 °FMore clouds than sun.5 mph73%30.09 "HgN/A
2:20 PM68 °FMore clouds than sun.6 mph83%30.09 "Hg5 mi
1:20 PM64 °FLight rain. More clouds than sun.5 mph94%30.09 "Hg4 mi
12:20 PM64 °FRain. More clouds than sun.3 mph94%30.09 "Hg4 mi
11:20 AM63 °FRain showers. Broken clouds.5 mph100%30.09 "Hg3 mi
10:53 AM63 °FThunderstorms. Broken clouds.1 mph94%30.09 "Hg3 mi
10:20 AM64 °FRain showers. Partly sunny.2 mph88%30.07 "Hg3 mi
9:20 AM64 °FSprinkles. Broken clouds.3 mph94%30.07 "Hg5 mi
8:20 AM64 °FThunderstorms. Broken clouds.3 mph94%30.04 "Hg5 mi
7:20 AM64 °FThunderstorms. Partly sunny.2 mph94%30.07 "Hg5 mi
Weather by CustomWeather, © 2016

See weather overviewHow to use our weather pages